Regional Weather Roundup
Issued by NWS

Home | Current Version | Previous Version | Text Only | Print | Product List | Glossary On
Versions: 1 2 3 4 5 6 7 8 9 10 11 12 13 14 15 16 17 18 19 20 21 22 23 24 25 26 27 28 29 30 31 32 33 34 35 36 37 38 39 40 41 42 43 44 45 46 47 48 49 50
000
ASUS43 KDMX 031104
RWRIA

WEATHER ROUNDUP FOR IOWA
NATIONAL WEATHER SERVICE DES MOINES IA
  ISSUED BY NWS QUAD CITIES IA IL
500 AM CST TUE MAR 03 2015

NOTE: "FAIR" INDICATES FEW OR NO CLOUDS BELOW 12,000 FEET WITH NO
SIGNIFICANT WEATHER AND/OR OBSTRUCTIONS TO VISIBILITY.

* - THESE STATIONS ARE NOT NWS STATIONS...THUS NOT UNDER NWS
QUALITY CONTROL.  THEY ALSO DO NOT REPORT WEATHER SUCH
AS PRECIPITATION OR FOG.

IAZ001>003-012>014-020>022-031>034-043>046-031200-
   NORTHWEST IOWA

CITY           SKY/WX    TMP DP  RH WIND       PRES   REMARKS
CARROLL *      CLOUDY    28  25  86 S9        29.68F WCI  20
CHEROKEE *     CLOUDY    26  23  87 SE6       29.69F WCI  20
DENNISON *     CLOUDY    30  27  86 S9        29.65F WCI  22
LE MARS *      CLOUDY    28  23  80 SE9       29.68F WCI  20
ORANGE CITY *  CLOUDY    28  23  80 CALM      29.66F
SHELDON *      CLOUDY    25  23  93 SE10      29.66F WCI  15
SIOUX CITY     CLOUDY    30  22  72 SE8       29.68F WCI  22
SPENCER        CLOUDY    26  20  77 SE7       29.69F WCI  18
STORM LAKE *   CLOUDY    25  23  93 SE8       29.69F WCI  16
$$

IAZ055>058-069>071-079>083-090>094-031200-
   SOUTHWEST IOWA

CITY           SKY/WX    TMP DP  RH WIND       PRES   REMARKS
ATLANTIC *     CLOUDY    30  28  93 S12G18    29.68F WCI  21
AUDUBON *      CLOUDY    30  25  80 S9        29.68F WCI  22
CLARINDA *     CLOUDY    32  32 100 S8        29.75S FOG     WCI  25
COUNCIL BLFS * CLOUDY    30  30 100 S13       29.66F FOG     WCI  20
CRESTON *      CLOUDY    30  30 100 S9        29.72F WCI  22
HARLAN *       CLOUDY    30  30 100 S14       29.71F WCI  20
LAMONI         FRZ RAIN  31  30  96 S15G24    29.74F FOG     WCI  20
RED OAK *      CLOUDY    32  30  93 S10       29.71F FOG     WCI  24
SHENANDOAH *   CLOUDY    32  32 100 S7        29.72F FOG     WCI  26
$$

IAZ047>049-059>061-072>074-084-031200-
   CENTRAL IOWA

CITY           SKY/WX    TMP DP  RH WIND       PRES   REMARKS
AMES           CLOUDY    27  23  85 SE13      29.75F WCI  16
ANKENY *       CLOUDY    28  27  93 S12       29.76F FOG     WCI  18
BOONE *        CLOUDY    28  25  86 SE10      29.71F WCI  19
CHARITON *     MIX PCPN  30  30 100 S13       29.77F WCI  20
DES MOINES     FRZ RAIN  30  25  81 S12       29.75F WCI  20
GRINNELL *     MIX PCPN  28  26  92 S14       29.80R WCI  17
KNOXVILLE *    MIX PCPN  30  27  86 SE9G15    29.75F WCI  22
MARSHALLTOWN   CLOUDY    27  23  85 S18       29.77F WCI  14
NEWTON *       CLOUDY    28  27  93 SE15      29.75F FOG     WCI  17
PELLA *        MIX PCPN  29  29  99 SE5       29.76F WCI  24
PERRY *          N/A     29  25  84 SE10      29.71F WCI  20
$$

IAZ004>006-015-016-023>025-035-036-031200-
   NORTH CENTRAL IOWA

CITY           SKY/WX    TMP DP  RH WIND       PRES   REMARKS
ALGONA *       CLOUDY    25  21  86 SE8       29.72F WCI  16
CLARION *      CLOUDY    25  25 100 SE12      29.74F WCI  14
ESTHERVILLE    CLOUDY    23  20  88 SE12      29.70F WCI  12
FORT DODGE *   CLOUDY    27  21  80 S6        29.73F WCI  20
MASON CITY     CLOUDY    23  19  85 SE12      29.77F WCI  12
FOREST CITY *  CLOUDY    25  19  80 SE8       29.74F WCI  16
WEBSTER CITY * CLOUDY    27  27 100 SE12      29.71F WCI  16
IOWA FALLS *   CLOUDY    27  22  84 SE13      29.77F WCI  16
$$

IAZ007>011-017>019-026>030-037>042-050>054-066-031200-
   NORTHEAST IOWA

CITY           SKY/WX    TMP DP  RH WIND       PRES   REMARKS
CEDAR RAPIDS   FRZ RAIN  28  27  96 SE14      29.77F WCI  17
CHARLES CITY * CLOUDY    25  23  93 SE14      29.79F FOG     WCI  13
CLINTON *      CLOUDY    27  23  86 SE17      29.91F WCI  14
DECORAH *      MIX PCPN  23  21  93 SE10G17   29.80F WCI  12
DUBUQUE        LGT SNOW  22  20  92 SE15      29.86F FOG     WCI   9
MONTICELLO *   CLOUDY    25  25 100 SE13      29.86F FOG     WCI  13
OELWEIN *      CLOUDY    23  23 100 SE18      29.79F FOG     WCI   9
WATERLOO       CLOUDY    25  23  92 SE14      29.78F FOG     WCI  13
$$

IAZ064-065-067-068-078-031200-
   EAST CENTRAL IOWA

CITY           SKY/WX    TMP DP  RH WIND       PRES   REMARKS
DAVENPORT      FRZ RAIN  28  25  88 S20       29.89F FOG     WCI  15
IOWA CITY      FRZ RAIN  29  27  92 SE15      29.82F FOG     WCI  18
MT. PLEASANT * CLOUDY    27  27  99 S18       29.86F FOG     WCI  14
MUSCATINE *    CLOUDY    30  27  86 S17G24    29.87F FOG     WCI  18
QUAD CITIES    FRZ RAIN  29  25  85 SE13      29.90F FOG     WCI  19
$$

IAZ062-063-075>077-085>089-095>099-031200-
   SOUTHEAST IOWA

CITY           SKY/WX    TMP DP  RH WIND       PRES   REMARKS
BURLINGTON     CLOUDY    28  27  96 S12       29.89F FOG     WCI  18
FAIRFIELD *    LGT RAIN  28  27  93 SE18G26   29.81F WCI  16
FORT MADISON * CLOUDY    28  27  93 S8        29.90F FOG     WCI  20
KEOKUK *       CLOUDY    30  28  93 S8G17     29.88F FOG     WCI  23
OSKALOOSA *    MIX PCPN  28  26  92 S14       29.81R WCI  17
CENTERVILLE *  CLOUDY    30  30 100 SE16      29.77F WCI  19
OTTUMWA        FRZ RAIN  28  26  92 S13       29.80F FOG     WCI  17
WASHINGTON *   CLOUDY    30  30 100 S21G28    29.81F FOG     WCI  17
$$

ABBREVIATIONS USED IN REMARKS
   TC - TEMPERATURES IN CELSIUS
  WCI - WIND CHILL INDEX
   HX - HEAT INDEX
  VSB - VISIBILITY
$$


USA.gov is the U.S. government's official web portal to all federal, state and local government web resources and services.